Simultaneous Nadir Overpasses (SNOs) Predictions

Prediction of SNOs between GOES-15 and FY3D Satellite Orbit:

Table of predicted SNOs for the next 14.0 days since TLE Epoch: 1/29/2022
Index Date Time (GOES-15) GOES-15 Lat,Lon FY3D Lat,Lon Distance(km) Time Diff (sec)
1 01/29/2022 10:14:38 -0.03,-128.31 -0.12,-127.83 55.01 80
2 01/31/2022 22:18:45 0.02,-128.30 -0.07,-128.81 57.42 80
3 02/01/2022 22:03:01 0.03,-128.29 0.89,-124.35 448.34 80
4 02/03/2022 10:25:23 -0.01,-128.25 0.35,-129.74 169.78 80
5 02/04/2022 10:04:20 -0.02,-128.24 -0.67,-125.29 335.97 80
6 02/05/2022 22:26:50 0.02,-128.24 -0.53,-130.72 282.50 80
7 02/06/2022 22:11:06 0.02,-128.23 0.44,-126.26 223.27 80
8 02/08/2022 10:33:28 -0.01,-128.19 0.75,-131.66 395.20 80
9 02/09/2022 10:12:25 -0.00,-128.17 -0.21,-127.21 110.30 80
10 02/11/2022 22:16:31 -0.01,-128.14 -0.01,-128.18 4.22 80
